RH
99 99 96 93 89 89 90 90 90 85 78 84 82 77 76 89 81 72 55 49 51 64 69 51 48 45 43 39 36 35 53 57 45 36 28 19 21 18 16 20 18 17 20 21 30
99 99 98 96 93 87 87 93 90 89 82 82 82 83 76 83 66 52 49 44 70 81 63 52 51 48 49 45 45 49 50 41 28 26 26 22 21 19 21 23 21 20 23 28 32
99 100 99 94 95 90 89 91 90 87 87 79 76 72 76 78 52 38 63 84 82 77 64 58 53 50 53 44 48 48 58 37 31 26 25 28 27 22 26 32 31 23 20 30 34
98 99 99 95 90 88 91 90 90 93 88 78 72 72 73 69 48 52 63 62 72 58 54 46 44 50 47 46 37 49 37 34 32 30 32 36 30 29 27 28 23 27 25 22 33
99 96 100 98 86 85 87 91 89 93 92 79 76 72 73 58 42 57 60 48 43 46 43 43 44 43 47 36 33 37 34 31 29 29 31 31 37 36 32 24 21 24 31 36 36
93 95 99 99 87 79 89 81 85 92 88 84 78 71 63 59 47 50 49 44 38 39 39 40 39 36 43 42 41 34 34 33 29 34 35 38 38 36 33 27 25 26 30 32 38
90 97 99 99 91 86 94 84 89 85 87 88 90 72 60 45 44 47 50 45 42 39 37 39 40 44 36 41 31 34 42 35 33 30 34 34 47 44 33 27 27 27 29 32 38
90 89 99 100 93 84 90 81 82 85 86 86 89 73 56 46 44 52 46 42 42 43 44 42 45 47 47 42 43 48 46 58 31 24 23 33 69 39 30 33 31 27 32 34 36
91 95 96 100 92 87 88 82 81 88 90 91 79 68 47 49 49 44 45 38 39 41 44 44 47 48 43 63 70 47 65 42 31 19 21 31 67 40 32 31 32 28 25 31 38
93 91 87 98 94 95 90 88 92 86 79 78 66 71 46 44 42 43 43 42 40 39 45 49 48 51 52 73 80 54 58 45 39 28 36 60 58 41 32 32 31 28 26 31 39
93 79 78 99 96 94 94 82 70 75 67 60 51 48 40 42 46 43 41 42 41 44 57 52 70 71 59 41 46 49 55 60 40 30 34 36 46 62 37 40 40 35 39 37 44
91 82 88 100 94 94 87 58 49 51 75 59 52 48 48 48 51 44 44 46 45 59 49 62 82 44 34 32 42 46 52 50 39 34 40 44 44 35 37 49 55 51 47 52 46
88 94 99 95 92 99 83 61 60 50 56 62 49 44 48 51 52 48 41 40 47 51 50 62 46 35 39 45 55 54 63 61 60 53 59 66 54 41 39 42 44 50 48 45 45
88 100 92 92 95 84 74 75 62 50 91 67 57 55 56 53 58 43 43 46 49 58 50 52 39 44 46 54 58 93 55 89 89 94 88 48 74 56 42 48 54 48 50 50 47
85 89 98 85 78 73 73 80 61 55 65 57 63 60 52 59 52 49 45 50 63 53 54 60 52 50 58 58 93 89 83 100 100 100 98 72 95 71 43 68 65 59 59 52 50
80 86 93 98 85 82 80 65 57 91 72 74 62 67 66 52 50 48 53 50 48 64 56 62 47 55 63 60 79 92 100 100 100 100 91 68 90 99 99 89 66 66 61 63 66
84 92 98 84 70 83 64 58 97 81 48 80 74 66 70 65 55 53 55 61 73 91 95 67 74 64 84 99 70 86 98 97 97 97 81 94 92 100 88 72 76 77 82 82 73
77 90 100 90 85 67 59 82 84 48 64 54 62 58 90 61 64 50 57 63 59 76 83 86 92 85 95 99 100 98 94 97 95 92 80 52 87 99 72 55 68 70 83 82 76
91 100 92 89 76 67 59 97 51 70 46 67 64 96 70 61 63 54 76 60 52 60 90 82 83 62 75 96 97 86 88 83 96 94 77 94 97 85 62 69 79 83 89 89 81
98 98 100 92 78 58 70 70 48 42 51 55 84 58 73 74 71 79 62 52 61 64 59 74 88 52 58 78 83 94 86 89 87 93 91 91 89 96 90 89 87 87 96 92 88
91 96 100 82 72 60 90 61 56 46 46 51 49 55 49 62 58 74 61 51 63 66 60 69 76 87 74 97 100 92 81 70 65 60 93 83 94 94 77 76 89 88 96 97 93
92 100 99 80 86 71 74 42 49 48 54 52 52 52 50 48 52 82 80 58 58 68 71 59 70 93 75 51 56 68 70 66 93 67 69 61 96 59 59 71 80 87 92 94 92
97 98 99 100 85 83 50 51 44 50 53 53 55 52 47 52 62 57 90 48 52 66 80 64 70 94 75 52 50 68 54 57 57 66 70 71 94 45 48 60 69 89 90 93 92
97 100 99 96 64 53 50 49 53 47 50 46 51 50 50 51 49 58 91 49 55 57 67 67 64 84 80 74 73 87 54 59 87 77 75 85 78 55 52 54 56 60 65 72 82
87 86 77 97 74 49 43 42 48 52 46 48 55 56 66 60 52 54 73 56 47 51 54 55 77 58 54 58 53 56 56 51 69 54 79 65 66 59 52 51 51 49 51 57 62
70 77 70 65 57 56 47 43 43 47 47 51 58 52 58 62 62 58 54 66 70 49 53 49 67 60 62 48 49 65 58 55 54 50 53 55 64 49 47 47 51 51 53 57 58
62 61 47 64 63 59 43 39 40 42 49 46 45 57 60 54 49 45 46 48 55 59 57 56 56 60 66 51 50 57 71 62 58 55 52 68 57 44 54 59 59 54 52 57 57
Wind_Speed
17 14 12 11 9 10 10 10 10 9 7 8 7 7 9 8 11 9 10 4 5 8 6 4 6 6 6 8 10 9 11 16 22 23 22 19 22 19 21 21 29 24 21 19 7
19 17 14 13 10 9 11 10 10 9 7 6 5 7 8 8 9 10 5 7 7 7 10 10 6 4 7 9 6 12 13 22 20 19 19 20 21 23 22 19 26 26 17 25 14
19 24 17 14 11 9 11 10 8 7 6 5 5 8 7 6 8 2 6 5 8 7 5 7 6 8 11 11 13 13 18 20 20 19 19 18 20 20 22 22 23 23 26 25 28
20 19 18 15 13 9 10 9 9 7 6 3 5 5 5 4 3 7 4 4 5 4 5 8 9 11 11 15 15 19 22 21 21 20 19 20 20 24 24 25 22 25 23 23 23
23 23 23 17 13 11 8 9 8 7 6 3 2 4 2 5 7 8 5 2 3 4 8 9 10 10 15 12 14 18 20 22 22 21 20 20 23 26 26 26 24 24 25 22 15
24 27 19 21 14 9 7 6 7 7 5 4 1 3 5 6 2 6 4 2 3 5 6 7 7 7 12 16 17 16 19 21 21 19 20 21 24 24 25 27 28 25 25 24 21
23 21 10 21 14 8 8 5 6 4 3 4 5 3 5 6 3 4 4 4 5 7 7 6 6 7 7 12 12 14 20 21 21 19 24 23 28 28 33 25 27 28 24 25 21
22 21 16 15 15 13 10 8 7 4 3 3 5 3 5 3 5 5 5 7 7 8 9 8 6 10 14 11 16 17 16 19 22 20 23 21 20 27 25 24 27 29 26 21 22
22 20 15 19 15 13 10 10 8 5 4 5 4 1 3 3 6 4 6 8 5 6 7 7 7 12 13 12 11 14 15 21 22 21 19 16 17 23 23 20 26 25 27 22 18
22 23 17 20 16 12 10 9 10 12 9 4 1 3 4 3 3 3 6 8 8 6 7 8 7 11 11 8 12 14 14 19 20 20 12 20 19 23 21 20 21 24 22 19 19
24 29 23 22 18 15 17 13 7 3 6 5 4 1 3 2 3 6 6 8 9 8 10 8 7 11 18 16 19 16 19 23 23 22 22 22 19 20 22 14 17 17 15 17 14
28 23 10 19 16 16 14 5 1 4 5 11 3 4 2 1 4 5 4 6 8 10 8 7 14 17 14 16 15 18 21 26 25 22 19 22 25 15 17 16 15 14 14 16 14
24 2 20 12 13 13 13 7 4 5 3 6 6 4 2 4 4 4 5 4 10 12 12 14 15 9 13 14 17 19 20 25 24 24 21 23 24 19 18 20 14 11 12 15 16
15 2 12 15 11 7 10 9 7 6 2 7 6 4 4 1 4 3 3 6 4 8 9 12 10 9 11 16 14 20 20 25 24 17 13 13 5 16 16 12 13 15 12 14 16
15 15 13 18 9 8 4 10 8 3 2 8 5 3 2 4 2 6 3 5 10 11 5 6 7 11 15 18 8 11 13 11 13 10 8 12 6 2 14 9 10 9 12 11 12
16 16 16 10 3 4 11 11 4 2 3 5 4 4 4 4 3 2 4 5 7 8 11 18 18 13 12 14 14 15 10 14 7 4 5 8 10 3 1 9 8 5 5 0 3
14 4 18 9 3 13 15 6 2 3 4 6 4 5 3 3 3 3 3 4 2 5 1 8 8 6 2 8 6 6 11 3 5 6 1 0 6 5 7 5 5 9 9 7 3
17 12 9 4 12 17 12 3 5 3 3 3 4 7 2 4 4 3 2 2 4 1 5 5 2 4 2 3 5 8 6 4 5 3 4 9 5 6 9 3 14 10 7 7 12
6 16 11 8 15 10 4 4 3 3 6 8 7 3 4 5 4 3 3 4 2 0 4 5 3 3 3 3 2 7 5 9 6 2 2 3 1 5 16 15 15 11 8 13 14
5 5 4 13 11 9 3 3 2 3 7 10 3 6 6 6 4 1 1 3 3 2 2 4 5 2 2 4 8 4 9 3 1 6 4 5 6 7 14 15 13 14 13 14 15
3 2 6 15 8 5 3 0 2 4 4 5 2 3 2 4 2 1 2 1 4 6 5 4 4 7 4 4 4 4 3 5 4 3 4 3 5 9 13 11 12 12 12 14 14
4 2 12 14 3 3 4 1 1 8 3 2 1 1 4 5 3 1 2 2 5 4 5 3 4 4 4 3 5 7 9 4 4 5 6 6 6 11 15 15 14 15 15 13 12
3 2 2 4 3 4 2 2 0 4 5 2 2 2 2 4 2 4 3 3 4 5 7 9 5 3 5 4 5 5 14 3 3 2 13 5 4 13 17 19 16 10 13 13 13
3 3 1 2 2 2 4 3 3 2 4 1 1 2 4 4 1 4 1 2 4 5 8 5 5 5 6 5 5 7 14 12 3 8 12 13 14 17 17 17 15 13 15 14 14
1 3 5 4 5 4 4 4 6 3 1 3 2 4 1 2 4 3 2 4 1 3 2 3 3 5 7 7 12 12 16 18 13 14 9 14 17 13 13 14 15 14 14 15 17
2 3 2 0 7 9 4 4 6 4 5 4 4 5 4 0 3 3 4 1 2 5 3 3 2 4 6 8 12 15 17 15 14 15 15 16 15 10 12 12 14 14 14 15 15
2 0 3 4 8 8 5 5 7 6 1 4 3 5 3 4 1 5 4 5 3 5 6 4 2 2 3 2 5 5 12 9 13 13 10 10 9 10 12 14 14 14 14 14 13
Wind_Direction
271 269 261 264 270 280 279 278 286 279 286 288 284 315 307 290 287 267 256 248 219 203 204 183 198 199 219 230 238 244 248 245 253 261 272 273 268 260 260 255 264 255 255 261 8
265 264 254 253 263 273 280 279 277 281 276 279 267 301 305 298 284 265 238 229 205 193 205 216 205 205 229 229 207 226 237 248 261 271 275 276 269 266 265 258 244 256 268 256 285
316 268 248 243 252 264 270 280 275 286 268 270 291 312 304 301 280 157 167 210 214 219 211 193 204 218 233 239 225 238 250 269 272 271 275 278 279 276 265 251 266 254 244 249 265
322 297 257 233 232 244 257 266 268 280 264 275 316 302 295 276 308 134 137 128 147 178 205 216 221 224 243 248 239 256 259 267 278 280 283 277 274 269 266 263 259 271 265 252 229
325 324 248 219 222 230 239 264 275 265 224 237 317 284 295 233 256 163 146 136 165 189 222 226 248 246 257 265 262 261 266 270 272 275 270 269 263 260 260 262 255 248 269 280 271
322 322 253 219 218 205 223 230 269 276 228 222 241 257 253 254 121 170 165 168 219 213 209 230 251 285 283 272 270 271 278 286 280 272 276 267 264 261 256 247 257 255 250 259 262
318 325 240 203 205 207 213 221 250 234 235 232 191 203 254 255 193 180 184 226 234 245 252 238 276 259 284 279 263 275 277 274 267 263 258 255 258 253 251 253 242 250 246 252 250
321 315 323 225 203 201 201 196 205 179 225 255 186 185 263 209 216 229 218 244 231 244 255 268 255 273 272 276 284 275 277 272 274 268 259 228 253 255 247 239 244 238 241 248 250
314 309 307 230 217 179 194 193 162 158 156 177 154 200 254 188 221 217 220 236 225 242 248 250 256 255 271 253 276 259 260 274 284 280 257 228 250 262 252 249 233 235 236 242 258
308 309 278 246 205 187 180 161 137 129 126 159 98 223 229 190 173 211 225 235 244 244 237 233 241 251 245 242 258 285 289 289 288 288 301 296 286 267 263 235 233 230 230 234 251
310 303 289 210 192 176 150 131 140 144 173 199 188 334 139 177 231 216 218 224 234 243 263 251 263 251 245 248 247 263 267 273 276 278 275 268 268 257 249 250 242 231 231 238 228
312 302 239 177 175 172 182 222 118 106 142 219 201 238 234 277 246 207 213 228 215 248 235 248 250 259 268 270 276 272 274 271 279 273 264 271 267 246 240 224 227 228 229 224 228
333 149 164 161 164 173 211 220 186 163 103 171 201 203 163 238 270 189 224 243 259 262 255 251 261 284 269 270 271 266 262 270 269 286 279 267 252 247 233 226 220 243 246 232 225
318 265 148 147 151 217 209 207 184 170 147 141 183 152 181 262 237 190 228 276 238 268 280 269 283 273 276 272 270 272 263 254 260 264 259 207 249 207 219 216 240 247 234 235 213
304 318 181 150 127 190 145 175 172 222 269 142 137 106 141 241 29 189 200 240 267 273 255 278 311 293 279 278 278 252 296 271 261 261 261 222 274 158 191 217 245 237 248 235 224
294 313 179 195 179 146 147 152 166 202 214 150 135 182 197 190 177 293 235 221 278 285 264 261 276 284 261 295 274 270 265 256 233 262 250 190 206 71 285 226 223 201 210 5 336
293 253 169 182 187 157 145 140 205 241 122 158 177 190 153 196 228 237 222 242 338 321 316 305 245 260 297 290 284 295 279 246 174 198 123 216 107 47 14 329 90 81 49 16 41
294 203 174 177 145 148 146 225 216 107 166 117 147 164 159 161 265 218 261 316 152 228 301 320 299 324 87 272 307 302 291 327 351 34 87 28 46 22 28 108 93 66 43 26 28
343 138 141 149 152 159 197 239 39 133 147 144 131 150 172 217 257 251 221 332 3 304 322 319 329 292 222 231 258 320 321 333 310 134 81 7 164 269 32 66 53 28 22 41 26
156 101 125 158 152 178 242 298 105 120 116 155 156 199 180 210 216 246 27 58 353 284 162 327 293 329 48 242 228 291 320 327 281 0 63 21 52 1 16 48 60 17 42 34 20
114 132 146 149 153 177 242 354 132 148 129 182 200 188 189 183 203 114 12 132 20 327 302 279 262 353 344 351 314 333 357 319 290 3 346 33 38 357 29 56 54 28 36 35 12
114 104 154 152 144 193 225 202 51 146 130 122 338 14 214 169 144 150 272 303 34 300 311 338 296 316 284 279 278 300 321 328 328 56 18 77 46 32 52 60 63 25 37 26 29
98 91 135 317 168 201 148 150 102 144 158 129 179 269 222 188 112 133 231 300 327 322 341 348 356 296 308 148 22 356 9 35 8 341 30 58 65 47 52 52 64 58 29 20 19
138 117 94 270 274 268 168 168 127 62 124 111 44 210 200 178 29 150 218 317 1 323 322 298 20 6 48 38 342 347 41 52 55 70 84 71 79 51 47 55 54 58 61 49 32
212 130 159 180 210 227 231 160 144 141 204 198 188 238 248 165 152 145 125 300 271 323 275 327 61 49 63 64 50 45 53 60 58 70 71 80 65 57 55 52 53 52 46 55 50
123 131 169 61 172 204 198 191 180 126 167 181 269 163 152 51 8 158 133 135 338 321 9 344 95 92 76 62 63 55 31 54 50 80 95 86 74 76 62 60 48 49 45 41 41
115 349 226 146 168 198 200 157 183 155 172 341 254 153 156 74 46 55 66 94 61 354 349 4 340 305 123 307 291 39 11 29 57 46 44 69 53 61 62 59 48 42 46 42 38